******** Week 151 almanac for PRN-1 ******** ID: 1 Health: 0 Eccentricity: 0.01145601273 Time of Applicability(s): 61440 Orbital Inclination(rad): 0.9868853415 Rate of Right Ascen(r/s): -8.046049436e-09 SQRT(A) (m 1/2): 5153.621582 Right Ascen at Week(rad): -2.160290988 Argument of Perigee(rad): 0.8833467319 Mean Anom(rad): -2.189177839 Af0(s): 0.0003323703735 Af1(s/s): -1.091394e-11 week: 151 ******** Week 151 almanac for PRN-2 ******** ID: 2 Health: 0 Eccentricity: 0.0206284523 Time of Applicability(s): 61440 Orbital Inclination(rad): 0.9652238549 Rate of Right Ascen(r/s): -8.148910863e-09 SQRT(A) (m 1/2): 5153.649414 Right Ascen at Week(rad): -2.249820638 Argument of Perigee(rad): -1.437391681 Mean Anom(rad): -2.049406198 Af0(s): -0.0005147595581 Af1(s/s): 0 week: 151 ******** Week 151 almanac for PRN-3 ******** ID: 3 Health: 0 Eccentricity: 0.003894805908 Time of Applicability(s): 61440 Orbital Inclination(rad): 0.9725522085 Rate of Right Ascen(r/s): -7.920329913e-09 SQRT(A) (m 1/2): 5153.62793 Right Ascen at Week(rad): -1.124912004 Argument of Perigee(rad): 0.9539038561 Mean Anom(rad): 2.94567567 Af0(s): -0.0001115437988 Af1(s/s): -1.818989e-11 week: 151 ******** Week 151 almanac for PRN-4 ******** ID: 4 Health: 0 Eccentricity: 0.001727581024 Time of Applicability(s): 61440 Orbital Inclination(rad): 0.9616106111 Rate of Right Ascen(r/s): -7.611745631e-09 SQRT(A) (m 1/2): 5153.603516 Right Ascen at Week(rad): -0.04372856416 Argument of Perigee(rad): -3.041751328 Mean Anom(rad): -0.423104933 Af0(s): -0.000147720166 Af1(s/s): 3.637979e-12 week: 151 ******** Week 151 almanac for PRN-5 ******** ID: 5 Health: 0 Eccentricity: 0.005858898163 Time of Applicability(s): 61440 Orbital Inclination(rad): 0.9595313481 Rate of Right Ascen(r/s): -8.057478483e-09 SQRT(A) (m 1/2): 5153.625977 Right Ascen at Week(rad): -1.165485721 Argument of Perigee(rad): 1.008983728 Mean Anom(rad): 0.4667282607 Af0(s): -5.727924805e-05 Af1(s/s): 0 week: 151 ******** Week 151 almanac for PRN-6 ******** ID: 6 Health: 0 Eccentricity: 0.002688884735 Time of Applicability(s): 61440 Orbital Inclination(rad): 0.9862621618 Rate of Right Ascen(r/s): -8.034620388e-09 SQRT(A) (m 1/2): 5153.629883 Right Ascen at Week(rad): -2.168563099 Argument of Perigee(rad): -0.9397167808 Mean Anom(rad): -1.878237012 Af0(s): 0.0001695767212 Af1(s/s): 1.091394e-11 week: 151 ******** Week 151 almanac for PRN-7 ******** ID: 7 Health: 0 Eccentricity: 0.01559686661 Time of Applicability(s): 61440 Orbital Inclination(rad): 0.9508188166 Rate of Right Ascen(r/s): -8.080336578e-09 SQRT(A) (m 1/2): 5153.62207 Right Ascen at Week(rad): 0.9748275638 Argument of Perigee(rad): -2.289105677 Mean Anom(rad): -2.859915433 Af0(s): 0.0002472051758 Af1(s/s): 3.637979e-12 week: 151 ******** Week 151 almanac for PRN-8 ******** ID: 8 Health: 0 Eccentricity: 0.007349491119 Time of Applicability(s): 61440 Orbital Inclination(rad): 0.9648882966 Rate of Right Ascen(r/s): -7.737465153e-09 SQRT(A) (m 1/2): 5153.68457 Right Ascen at Week(rad): 3.043207786 Argument of Perigee(rad): 0.1150556748 Mean Anom(rad): 0.06113490183 Af0(s): -4.59741333e-05 Af1(s/s): 0 week: 151 ******** Week 151 almanac for PRN-9 ******** ID: 9 Health: 0 Eccentricity: 0.002217769623 Time of Applicability(s): 61440 Orbital Inclination(rad): 0.9546118238 Rate of Right Ascen(r/s): -7.680319916e-09 SQRT(A) (m 1/2): 5153.567871 Right Ascen at Week(rad): -0.09676138094 Argument of Perigee(rad): 1.879038831 Mean Anom(rad): 0.4374081054 Af0(s): -0.0002781058228 Af1(s/s): 3.637979e-12 week: 151 ******** Week 151 almanac for PRN-10 ******** ID: 10 Health: 0 Eccentricity: 0.007540225983 Time of Applicability(s): 61440 Orbital Inclination(rad): 0.9723784372 Rate of Right Ascen(r/s): -7.908900866e-09 SQRT(A) (m 1/2): 5153.635254 Right Ascen at Week(rad): -1.127696839 Argument of Perigee(rad): -2.507210705 Mean Anom(rad): 2.055622266 Af0(s): -0.0002630323364 Af1(s/s): -1.091394e-11 week: 151 ******** Week 151 almanac for PRN-11 ******** ID: 11 Health: 255 Eccentricity: 0.0002760887146 Time of Applicability(s): 61440 Orbital Inclination(rad): 0.9619881142 Rate of Right Ascen(r/s): -8.286059433e-09 SQRT(A) (m 1/2): 5153.723633 Right Ascen at Week(rad): -2.116802483 Argument of Perigee(rad): 2.802067579 Mean Anom(rad): -0.009453680919 Af0(s): -6.029394531e-05 Af1(s/s): 1.091394e-11 week: 151 ******** Week 151 almanac for PRN-12 ******** ID: 12 Health: 0 Eccentricity: 0.00870847702 Time of Applicability(s): 61440 Orbital Inclination(rad): 0.9699456396 Rate of Right Ascen(r/s): -7.703178011e-09 SQRT(A) (m 1/2): 5153.542969 Right Ascen at Week(rad): 2.088007387 Argument of Perigee(rad): 1.250269619 Mean Anom(rad): 2.777326521 Af0(s): -0.0001401834229 Af1(s/s): -7.275958e-12 week: 151 ******** Week 151 almanac for PRN-13 ******** ID: 13 Health: 0 Eccentricity: 0.005804538727 Time of Applicability(s): 61440 Orbital Inclination(rad): 0.9690468227 Rate of Right Ascen(r/s): -7.577458489e-09 SQRT(A) (m 1/2): 5153.628906 Right Ascen at Week(rad): 0.05621200694 Argument of Perigee(rad): 0.9531256305 Mean Anom(rad): -0.4878141299 Af0(s): 0.0002125361572 Af1(s/s): 7.275958e-12 week: 151 ******** Week 151 almanac for PRN-14 ******** ID: 14 Health: 0 Eccentricity: 0.001477718353 Time of Applicability(s): 61440 Orbital Inclination(rad): 0.953341496 Rate of Right Ascen(r/s): -7.920329913e-09 SQRT(A) (m 1/2): 5153.59375 Right Ascen at Week(rad): 2.056512469 Argument of Perigee(rad): 3.023970858 Mean Anom(rad): 2.835908783 Af0(s): -7.009171143e-05 Af1(s/s): -3.637979e-12 week: 151 ******** Week 151 almanac for PRN-15 ******** ID: 15 Health: 0 Eccentricity: 0.01393270493 Time of Applicability(s): 61440 Orbital Inclination(rad): 0.9304516264 Rate of Right Ascen(r/s): -7.943188008e-09 SQRT(A) (m 1/2): 5153.693848 Right Ascen at Week(rad): -0.2030809303 Argument of Perigee(rad): 1.077579559 Mean Anom(rad): -0.9269228717 Af0(s): -6.406231689e-05 Af1(s/s): 3.637979e-12 week: 151 ******** Week 151 almanac for PRN-16 ******** ID: 16 Health: 0 Eccentricity: 0.01278734207 Time of Applicability(s): 61440 Orbital Inclination(rad): 0.9699036948 Rate of Right Ascen(r/s): -7.668890868e-09 SQRT(A) (m 1/2): 5153.55957 Right Ascen at Week(rad): 2.106621884 Argument of Perigee(rad): 0.7113637418 Mean Anom(rad): 0.9224018229 Af0(s): -0.0003753298096 Af1(s/s): -3.637979e-12 week: 151 ******** Week 151 almanac for PRN-17 ******** ID: 17 Health: 0 Eccentricity: 0.01356601715 Time of Applicability(s): 61440 Orbital Inclination(rad): 0.9800363569 Rate of Right Ascen(r/s): -7.600316584e-09 SQRT(A) (m 1/2): 5153.727539 Right Ascen at Week(rad): 3.12524018 Argument of Perigee(rad): -1.495302452 Mean Anom(rad): -0.02630087959 Af0(s): 0.0004589876587 Af1(s/s): 3.637979e-12 week: 151 ******** Week 151 almanac for PRN-18 ******** ID: 18 Health: 0 Eccentricity: 0.002113342285 Time of Applicability(s): 61440 Orbital Inclination(rad): 0.9706706852 Rate of Right Ascen(r/s): -8.206056101e-09 SQRT(A) (m 1/2): 5153.566895 Right Ascen at Week(rad): -2.152655913 Argument of Perigee(rad): 3.094045243 Mean Anom(rad): -1.969064329 Af0(s): 0.0001823891846 Af1(s/s): -7.275958e-12 week: 151 ******** Week 151 almanac for PRN-19 ******** ID: 19 Health: 0 Eccentricity: 0.008999824524 Time of Applicability(s): 61440 Orbital Inclination(rad): 0.9788019818 Rate of Right Ascen(r/s): -7.623174678e-09 SQRT(A) (m 1/2): 5153.648438 Right Ascen at Week(rad): -3.113100535 Argument of Perigee(rad): 2.012415764 Mean Anom(rad): 2.391197416 Af0(s): 9.873133545e-05 Af1(s/s): 3.637979e-12 week: 151 ******** Week 151 almanac for PRN-20 ******** ID: 20 Health: 0 Eccentricity: 0.005122184753 Time of Applicability(s): 61440 Orbital Inclination(rad): 0.9417048136 Rate of Right Ascen(r/s): -8.297488481e-09 SQRT(A) (m 1/2): 5153.703613 Right Ascen at Week(rad): -1.279778525 Argument of Perigee(rad): -3.139710008 Mean Anom(rad): -1.188521274 Af0(s): 0.0004084914795 Af1(s/s): 0 week: 151 ******** Week 151 almanac for PRN-21 ******** ID: 21 Health: 0 Eccentricity: 0.02458286285 Time of Applicability(s): 61440 Orbital Inclination(rad): 0.9594834112 Rate of Right Ascen(r/s): -8.171768958e-09 SQRT(A) (m 1/2): 5153.525391 Right Ascen at Week(rad): -2.251532135 Argument of Perigee(rad): -0.9963527297 Mean Anom(rad): 0.17218822 Af0(s): 0.0001251099365 Af1(s/s): 0 week: 151 ******** Week 151 almanac for PRN-22 ******** ID: 22 Health: 0 Eccentricity: 0.01297855377 Time of Applicability(s): 61440 Orbital Inclination(rad): 0.9617604139 Rate of Right Ascen(r/s): -7.646032773e-09 SQRT(A) (m 1/2): 5153.614746 Right Ascen at Week(rad): 0.004572730817 Argument of Perigee(rad): -1.870898172 Mean Anom(rad): -0.1383732314 Af0(s): 0.0001740987671 Af1(s/s): 7.275958e-12 week: 151 ******** Week 151 almanac for PRN-23 ******** ID: 23 Health: 0 Eccentricity: 0.001999378204 Time of Applicability(s): 61440 Orbital Inclination(rad): 0.9674169681 Rate of Right Ascen(r/s): -7.988904198e-09 SQRT(A) (m 1/2): 5153.656738 Right Ascen at Week(rad): -1.152623278 Argument of Perigee(rad): 2.982301333 Mean Anom(rad): -2.923892843 Af0(s): -2.261022949e-06 Af1(s/s): -3.637979e-12 week: 151 ******** Week 151 almanac for PRN-24 ******** ID: 24 Health: 0 Eccentricity: 0.01236009598 Time of Applicability(s): 61440 Orbital Inclination(rad): 0.9343704679 Rate of Right Ascen(r/s): -8.217485148e-09 SQRT(A) (m 1/2): 5153.625977 Right Ascen at Week(rad): 0.8918547826 Argument of Perigee(rad): 0.8096950562 Mean Anom(rad): -1.894037089 Af0(s): 0.0002147971802 Af1(s/s): -3.637979e-12 week: 151 ******** Week 151 almanac for PRN-25 ******** ID: 25 Health: 0 Eccentricity: 0.01053667068 Time of Applicability(s): 61440 Orbital Inclination(rad): 0.9573442271 Rate of Right Ascen(r/s): -7.886042771e-09 SQRT(A) (m 1/2): 5153.649902 Right Ascen at Week(rad): 2.011112854 Argument of Perigee(rad): 0.9839228415 Mean Anom(rad): 2.513784053 Af0(s): 0.0002306243408 Af1(s/s): 3.637979e-12 week: 151 ******** Week 151 almanac for PRN-26 ******** ID: 26 Health: 0 Eccentricity: 0.006909370422 Time of Applicability(s): 61440 Orbital Inclination(rad): 0.9381694672 Rate of Right Ascen(r/s): -8.080336578e-09 SQRT(A) (m 1/2): 5153.645996 Right Ascen at Week(rad): 1.963872912 Argument of Perigee(rad): 0.3746171335 Mean Anom(rad): 1.859858828 Af0(s): 0.000147720166 Af1(s/s): 3.637979e-12 week: 151 ******** Week 151 almanac for PRN-27 ******** ID: 27 Health: 0 Eccentricity: 0.01031064987 Time of Applicability(s): 61440 Orbital Inclination(rad): 0.9736068203 Rate of Right Ascen(r/s): -7.657461821e-09 SQRT(A) (m 1/2): 5153.611816 Right Ascen at Week(rad): 3.062723722 Argument of Perigee(rad): 0.6432839816 Mean Anom(rad): 0.03052719141 Af0(s): 0.0001077754272 Af1(s/s): 1.455192e-11 week: 151 ******** Week 151 almanac for PRN-29 ******** ID: 29 Health: 0 Eccentricity: 0.001870155334 Time of Applicability(s): 61440 Orbital Inclination(rad): 0.9820556988 Rate of Right Ascen(r/s): -7.588887536e-09 SQRT(A) (m 1/2): 5153.708496 Right Ascen at Week(rad): 3.138271152 Argument of Perigee(rad): 2.242563816 Mean Anom(rad): 0.1653632039 Af0(s): -0.000383620227 Af1(s/s): -3.637979e-12 week: 151 ******** Week 151 almanac for PRN-30 ******** ID: 30 Health: 0 Eccentricity: 0.005554199219 Time of Applicability(s): 61440 Orbital Inclination(rad): 0.9359763541 Rate of Right Ascen(r/s): -8.240343243e-09 SQRT(A) (m 1/2): 5153.503906 Right Ascen at Week(rad): 0.9877738972 Argument of Perigee(rad): -2.739936114 Mean Anom(rad): -2.814699701 Af0(s): -0.0004077378052 Af1(s/s): -3.637979e-12 week: 151 ******** Week 151 almanac for PRN-31 ******** ID: 31 Health: 0 Eccentricity: 0.01045227051 Time of Applicability(s): 61440 Orbital Inclination(rad): 0.9550252796 Rate of Right Ascen(r/s): -8.023191341e-09 SQRT(A) (m 1/2): 5153.629883 Right Ascen at Week(rad): 0.9929743018 Argument of Perigee(rad): 0.3790700221 Mean Anom(rad): 2.968964015 Af0(s): -0.0001318930054 Af1(s/s): 0 week: 151 ******** Week 151 almanac for PRN-32 ******** ID: 32 Health: 0 Eccentricity: 0.005689620972 Time of Applicability(s): 61440 Orbital Inclination(rad): 0.95845876 Rate of Right Ascen(r/s): -7.668890868e-09 SQRT(A) (m 1/2): 5153.525879 Right Ascen at Week(rad): -0.08550707023 Argument of Perigee(rad): -2.334094082 Mean Anom(rad): 0.6546049546 Af0(s): -5.9540271e-05 Af1(s/s): -7.275958e-12 week: 151